Location: Newark
(44.5208°N, 2.4294°E)
Time: 01:02:08
(UTC+00:00)

N. Korean satellite - Pass Details

Date: 26 October 2019
Orbit: 456 x 506 km, 97.2° (Epoch: 22 November)

Event Time Altitude Azimuth Distance (km) Brightness Sun altitude
Rises 17:32:47 0° 192° (SSW) 2,468 10.5 -8.5°
Reaches altitude 10° 17:35:01 10° 206° (SSW) 1,604 9.7 -8.9°
Maximum altitude 17:37:57 26° 265° (W) 952 9.1 -9.4°
Drops below altitude 10° 17:40:57 10° 323° (NW) 1,634 9.6 -9.9°
Sets 17:43:16 0° 337° (NNW) 2,526 10.4 -10.3°
